Regional Weather Roundup
Issued by NWS

Home | Current Version | Previous Version | Graphics & Text | Print | Product List | Glossary On
Versions: 1 2 3 4 5 6 7 8 9 10 11 12 13 14 15 16 17 18 19 20 21 22 23 24 25 26 27 28 29 30 31 32 33 34 35 36 37 38 39 40 41 42 43 44 45 46 47 48 49 50
000
ASUS43 KOAX 231810
RWRNE

WEATHER ROUNDUP FOR NEBRASKA
NATIONAL WEATHER SERVICE OMAHA NE
100 PM CDT WED JUL 23 2014

NOTES: SATELLITE DATA IS BEING USED TO AUGMENT CLOUD COVER ABOVE
       12000 FEET.
       "FAIR" INDICATES FEW OR NO CLOUDS BELOW 12,000 FEET WITH NO
       SIGNIFICANT WEATHER AND/OR OBSTRUCTIONS TO VISIBILITY.

  * THESE STATIONS DO NOT REPORT WEATHER SUCH AS RAIN...SNOW OR FOG.

NEZ001>004-019>022-054>056-231900-
NEBRASKA PANHANDLE

CITY           SKY/WX    TMP DP  RH WIND       PRES   REMARKS
SCOTTSBLUFF    MOSUNNY   84  63  49 S12G22    30.28F
6HR MIN TEMP:  68; 6HR MAX TEMP:  85;

ALLIANCE       SUNNY     87  53  31 S16G29    30.28F
6HR MIN TEMP:  63; 6HR MAX TEMP:  87;

CHADRON        SUNNY     89  58  34 S22       30.20F
6HR MIN TEMP:  67; 6HR MAX TEMP:  89;

KIMBALL        CLOUDY    73  63  70 S16G22    30.34S
SIDNEY         MOSUNNY   84  64  50 SE15G23   30.32F
6HR MIN TEMP:  65; 6HR MAX TEMP:  84;

$$

NEZ057>060-069>072-079>082-231900-
SOUTHWEST NEBRASKA

CITY           SKY/WX    TMP DP  RH WIND       PRES   REMARKS
NORTH PLATTE   PTSUNNY   73  64  73 SE9G20    30.20F
6HR MIN TEMP:  65; 6HR MAX TEMP:  77; 6HR PCP:  0.03;

IMPERIAL       MOSUNNY   80  62  54 SW7       30.27F
6HR MIN TEMP:  61; 6HR MAX TEMP:  80; 6HR PCP:  0.40;

LEXINGTON      CLOUDY    71  64  78 SE13      30.25F
MCCOOK         CLOUDY    69  63  81 SE22      30.20F
6HR MIN TEMP:  66; 6HR MAX TEMP:  70; 6HR PCP:  0.08;

OGALLALA       SUNNY     84  61  45 S8        30.24F
$$

NEZ005>010-023>029-035>040-094-231900-
NORTH CENTRAL NEBRASKA

CITY           SKY/WX    TMP DP  RH WIND       PRES   REMARKS
VALENTINE      SUNNY     83  59  44 SE16G22   30.25F
6HR MIN TEMP:  69; 6HR MAX TEMP:  83;

AINSWORTH      SUNNY     78  58  49 E9G17     30.26F
BROKEN BOW     PTSUNNY   76  59  55 SE13G26   30.27R
6HR MIN TEMP:  64; 6HR MAX TEMP:  76;

O`NEILL        MOSUNNY   79  53  40 E12       30.27F
ORD            PTSUNNY   77  57  50 SE7       30.27R
6HR MIN TEMP:  60; 6HR MAX TEMP:  77;

THEDFORD       MOSUNNY   78  61  55 SE12G17   30.28S
$$

NEZ041-046>049-061>064-073>077-083>087-231900-
SOUTH CENTRAL NEBRASKA

CITY           SKY/WX    TMP DP  RH WIND       PRES   REMARKS
GRAND ISLAND   CLOUDY    77  59  53 CALM      30.28R
6HR MIN TEMP:  63; 6HR MAX TEMP:  77;

AURORA         CLOUDY    78  60  54 E7        30.25F
HASTINGS       CLOUDY    73  59  61 CALM      30.27F
6HR MIN TEMP:  68; 6HR MAX TEMP:  74;

HEBRON         CLOUDY    79  60  50 E6        30.23F
HOLDREGE       CLOUDY    69  64  83 E12       30.27S
KEARNEY *      CLOUDY    72  61  68 SE9       30.26F
YORK           CLOUDY    77  63  61 NE7       30.25F
$$

NEZ011>018-030>034-042>045-231900-
NORTHEAST NEBRASKA

CITY           SKY/WX    TMP DP  RH WIND       PRES   REMARKS
NORFOLK        MOSUNNY   80  55  42 NE5       30.26S
6HR MIN TEMP:  61; 6HR MAX TEMP:  80;

ALBION         MOSUNNY   78  56  47 E8        30.27S
BLAIR          SUNNY     80  57  45 N9        30.23S
COLUMBUS *     PTSUNNY   81  57  44 E6        30.25F
FREMONT        SUNNY     81  58  45 N3        30.24S
TEKAMAH        SUNNY     82  57  42 N10       30.23S
6HR MIN TEMP:  62; 6HR MAX TEMP:  83;

WAYNE          MOSUNNY   79  59  50 E8        30.26S
$$

NEZ050>053-065>068-078-088>093-231900-
SOUTHEAST NEBRASKA

CITY           SKY/WX    TMP DP  RH WIND       PRES   REMARKS
LINCOLN        MOSUNNY   84  56  38 E6        30.23F
6HR MIN TEMP:  66; 6HR MAX TEMP:  85;

OMAHA EPPLEY   MOSUNNY   83  57  41 N6        30.22F
6HR MIN TEMP:  65; 6HR MAX TEMP:  83;

BEATRICE       MOSUNNY   81  63  53 E9        30.21F
FALLS CITY     SUNNY     83  66  56 N7        30.19F
6HR MIN TEMP:  67; 6HR MAX TEMP:  84;

NEBRASKA CITY  SUNNY     80  61  52 CALM      30.22S
PLATTSMOUTH    SUNNY     82  57  42 NE9       30.22S
$$

NEZ044-045-051>053-067-231900-
OMAHA AREA

CITY           SKY/WX    TMP DP  RH WIND       PRES   REMARKS
OMAHA EPPLEY   MOSUNNY   83  57  41 N6        30.22F
6HR MIN TEMP:  65; 6HR MAX TEMP:  83;

BLAIR          SUNNY     80  57  45 N9        30.23S
FREMONT        SUNNY     81  58  45 N3        30.24S
MILLARD        SUNNY     81  57  43 N5        30.22R
OFFUTT AFB     SUNNY     83  58  42 NE8       30.21F
PLATTSMOUTH    SUNNY     82  57  42 NE9       30.22S
WAHOO          FAIR      80  57  45 NE7       30.23F
$$



USA.gov is the U.S. government's official web portal to all federal, state and local government web resources and services.